(226813) = 2004 RA227

Discovered at Kitt Peak on 2004-09-09 by Spacewatch.

Orbit

Orbit type: Main Belt

Note: WebGL enabled browser required.

epoch2023-09-13.0
epoch JD2460200.5
perihelion date2023-02-21.86730
perihelion JD2459997.36730
argument of perihelion (°)35.16989
ascending node (°)318.66263
inclination (°)3.50121
eccentricity0.0870384
perihelion distance (AU)2.5514150
Tisserand w.r.t. Jupiter3.3
ΔV w.r.t. Earth (km/sec)10.0
semimajor axis (AU)2.7946576
mean anomaly (°)42.85394
mean daily motion (°/day)0.21096530
aphelion distance (AU)3.038
period (years)4.67
P-vector [x]0.99350200
P-vector [y]-0.11330274
P-vector [z]-0.01078271
Q-vector [x]0.10642737
Q-vector [y]0.89126317
Q-vector [z]0.44082103
absolute magnitude16.0
phase slope0.15
uncertainty0
referenceMPEC 2024-A65
observations used532
oppositions16
arc length (days)8911
first opposition used1999
last opposition used2024
residual rms (arc-secs)0.74
perturbers coarse indicatorM-v
perturbers precise indicator003Ek
first observation date used1999-08-12.0
last observation date used2024-01-04.0
computer nameMPCLINUX
JD of orbit computation2456581.736207
perihelion JD uncertainty (days)1.5554E-04
argument of perihelion uncertainty (°)1.0088E-04
ascending node uncertainty (°)9.4554E-05
inclination uncertainty (°)5.6437E-06
eccentricity uncertainty 6.3192E-08
perihelion distance uncertainty (AU)1.8513E-07
Minimum Orbit Intersection Distances (in AU)
for orbit epoch: 2460200.5, reference: E2024-A65
Mercury2.17097
Venus1.82881
Earth1.54623
Mars1.16354
Jupiter2.32993
Saturn6.19015
Uranus15.414
Neptune27.2244

Observations

542 total observations over interval: 1999 08 12.45538 – 2024 01 04.414547
These data are available for download (format description).

Date (UT) J2000 RA J2000 Dec Magn Location Ref
1999 08 12.45538 23 09 02.67 -03 41 37.9 19.8 V 691 – Steward Observatory, Kitt Peak-Spacewatch MPS 118459
1999 08 12.46809 23 09 02.21 -03 41 39.3 20.2 V 691 – Steward Observatory, Kitt Peak-Spacewatch MPS 118459
1999 08 12.47907 23 09 01.82 -03 41 40.5 20.3 V 691 – Steward Observatory, Kitt Peak-Spacewatch MPS 118459
1999 10 06.18350 22 30 08.68 -06 27 37.7 20.0   704 – Lincoln Laboratory ETS, New Mexico MPS 118459
1999 10 06.19691 22 30 08.35 -06 27 39.2 20.0   704 – Lincoln Laboratory ETS, New Mexico MPS 118459
1999 10 06.22338 22 30 07.72 -06 27 42.3 19.7   704 – Lincoln Laboratory ETS, New Mexico MPS 118459
2004 09 09.42344 01 44 49.88 +15 24 50.8 19.9 V 691 – Steward Observatory, Kitt Peak-Spacewatch MPS 113273
2004 09 09.45207 01 44 49.31 +15 24 51.6 20.3 V 691 – Steward Observatory, Kitt Peak-Spacewatch MPS 113273
2004 09 09.48179 01 44 48.68 +15 24 52.2 20.1 V 691 – Steward Observatory, Kitt Peak-Spacewatch MPS 113273
2004 09 15.40363 01 42 31.34 +15 24 35.4 20.2 V 691 – Steward Observatory, Kitt Peak-Spacewatch MPS 113273
2004 09 15.43240 01 42 30.50 +15 24 34.4 20.3 V 691 – Steward Observatory, Kitt Peak-Spacewatch MPS 113273
2004 09 15.46149 01 42 29.64 +15 24 33.6 19.7 V 691 – Steward Observatory, Kitt Peak-Spacewatch MPS 113273
2004 10 06.34478 01 28 24.14 +14 39 57.4 19.3 V 691 – Steward Observatory, Kitt Peak-Spacewatch MPS 117663
2004 10 06.37186 01 28 22.72 +14 39 51.4 19.6 V 691 – Steward Observatory, Kitt Peak-Spacewatch MPS 117663
2004 10 06.39967 01 28 21.28 +14 39 45.3 19.6 V 691 – Steward Observatory, Kitt Peak-Spacewatch MPS 117663
2004 10 07.17124 01 27 43.00 +14 36 56.6 19.4 R 699 – Lowell Observatory-LONEOS MPS 117663
2004 10 07.19071 01 27 41.95 +14 36 51.6   699 – Lowell Observatory-LONEOS MPS 117663
2004 10 07.21016 01 27 40.83 +14 36 49.0   699 – Lowell Observatory-LONEOS MPS 117663
2004 10 07.22964 01 27 39.83 +14 36 44.6   699 – Lowell Observatory-LONEOS MPS 117663
2004 10 10.25523 01 25 05.40 +14 25 03.9 19.3 V 691 – Steward Observatory, Kitt Peak-Spacewatch MPS 117663
2004 10 10.25703 01 25 05.31 +14 25 03.3 19.4   704 – Lincoln Laboratory ETS, New Mexico MPS 117663
2004 10 10.26893 01 25 04.68 +14 25 01.4 19.5   704 – Lincoln Laboratory ETS, New Mexico MPS 117663
2004 10 10.28074 01 25 04.04 +14 24 58.2 19.8   704 – Lincoln Laboratory ETS, New Mexico MPS 117663
2004 10 10.28330 01 25 03.90 +14 24 57.3 19.6 V 691 – Steward Observatory, Kitt Peak-Spacewatch MPS 117663
2004 10 10.29265 01 25 03.36 +14 24 55.6 20.1   704 – Lincoln Laboratory ETS, New Mexico MPS 117663
2004 10 10.31155 01 25 02.39 +14 24 50.4 19.6 V 691 – Steward Observatory, Kitt Peak-Spacewatch MPS 117663
2004 10 14.27416 01 21 36.58 +14 08 11.6 19.2 V 691 – Steward Observatory, Kitt Peak-Spacewatch MPS 117663
2004 10 14.30084 01 21 35.11 +14 08 05.2 19.7 V 691 – Steward Observatory, Kitt Peak-Spacewatch MPS 117663
2004 10 14.33353 01 21 33.32 +14 07 56.5 19.4 V 691 – Steward Observatory, Kitt Peak-Spacewatch MPS 117663
2004 10 21.21238 01 15 38.87 +13 36 32.4 19.2   704 – Lincoln Laboratory ETS, New Mexico MPS 118459
2004 10 21.22428 01 15 38.22 +13 36 30.1 19.6   704 – Lincoln Laboratory ETS, New Mexico MPS 118459
2004 10 21.23613 01 15 37.65 +13 36 26.6 19.3   704 – Lincoln Laboratory ETS, New Mexico MPS 118459
2004 10 21.24799 01 15 36.99 +13 36 22.6 19.3   704 – Lincoln Laboratory ETS, New Mexico MPS 118459
2004 10 21.25986 01 15 36.40 +13 36 19.5 19.6   704 – Lincoln Laboratory ETS, New Mexico MPS 118459
2004 11 04.24977 01 05 04.79 +12 30 59.7 19.4 R 703 – Catalina Sky Survey MPS 118459
2004 11 04.26032 01 05 04.37 +12 30 55.8 19.2 R 703 – Catalina Sky Survey MPS 118459
2004 11 04.27078 01 05 04.02 +12 30 53.1 19.9 R 703 – Catalina Sky Survey MPS 118459
2004 11 04.28125 01 05 03.52 +12 30 50.5 19.3 R 703 – Catalina Sky Survey MPS 118459
2005 10 07.46202 08 22 21.75 +21 24 43.1 21.4 V G96 – Mt. Lemmon Survey MPS 143998
2005 10 07.46492 08 22 21.97 +21 24 41.9 21.1 V G96 – Mt. Lemmon Survey MPS 143998
2005 10 07.46781 08 22 22.11 +21 24 41.5 20.5 V G96 – Mt. Lemmon Survey MPS 143998
2005 10 07.47076 08 22 22.36 +21 24 40.9 21.6 V G96 – Mt. Lemmon Survey MPS 143998
2005 12 22.44622 08 55 47.15 +19 07 47.0 20.7 V 691 – Steward Observatory, Kitt Peak-Spacewatch MPS 155924
2005 12 22.46350 08 55 46.64 +19 07 48.1 20.5 V 691 – Steward Observatory, Kitt Peak-Spacewatch MPS 155924
2005 12 22.48077 08 55 46.13 +19 07 49.5 20.5 V 691 – Steward Observatory, Kitt Peak-Spacewatch MPS 155924
2006 01 22.39828 08 32 16.76 +20 13 56.2 20.1 V G96 – Mt. Lemmon Survey MPS 160435
2006 01 22.40330 08 32 16.47 +20 13 57.3 19.8 V G96 – Mt. Lemmon Survey MPS 160435
2006 01 22.40837 08 32 16.18 +20 13 57.9 19.8 V G96 – Mt. Lemmon Survey MPS 160435
2006 01 22.41343 08 32 15.86 +20 13 58.4 19.5 V G96 – Mt. Lemmon Survey MPS 160435
2006 01 23.12749 08 31 35.40 +20 15 40.1 20.4 V 691 – Steward Observatory, Kitt Peak-Spacewatch MPS 160435
2006 01 23.14491 08 31 34.38 +20 15 42.4 20.2 V 691 – Steward Observatory, Kitt Peak-Spacewatch MPS 160435
2006 01 23.16232 08 31 33.37 +20 15 45.1 19.9 V 691 – Steward Observatory, Kitt Peak-Spacewatch MPS 160435
2007 03 14.45789 13 50 26.09 -15 54 48.9 21.0 V 691 – Steward Observatory, Kitt Peak-Spacewatch MPS 203048
2007 03 14.47557 13 50 25.61 -15 54 47.3 20.5 V 691 – Steward Observatory, Kitt Peak-Spacewatch MPS 203048
2007 03 14.49327 13 50 25.09 -15 54 46.5 20.8 V 691 – Steward Observatory, Kitt Peak-Spacewatch MPS 203048
2008 07 25.52663 20 21 08.42 -21 08 19.8 19.7 V E12 – Siding Spring Survey MPS 252928
2008 07 25.53546 20 21 07.95 -21 08 20.2 19.2 V E12 – Siding Spring Survey MPS 252928
2008 07 25.54434 20 21 07.45 -21 08 20.4 19.3 V E12 – Siding Spring Survey MPS 252928
2008 07 25.55343 20 21 06.94 -21 08 21.5 18.7 V E12 – Siding Spring Survey MPS 252928
2009 11 11.31104 04 04 12.82 +26 17 55.8 19.6   704 – Lincoln Laboratory ETS, New Mexico MPS 302156
2009 11 11.32367 04 04 12.05 +26 17 53.7 19.8   704 – Lincoln Laboratory ETS, New Mexico MPS 302156
2009 11 11.33603 04 04 11.38 +26 17 52.6 20.0   704 – Lincoln Laboratory ETS, New Mexico MPS 302156
2009 11 11.34839 04 04 10.62 +26 17 51.1 20.4   704 – Lincoln Laboratory ETS, New Mexico MPS 302156
2009 11 11.36073 04 04 09.94 +26 17 49.4 20.1   704 – Lincoln Laboratory ETS, New Mexico MPS 302156
2009 11 17.14971 03 58 39.55 +26 03 54.6 19.7 V 691 – Steward Observatory, Kitt Peak-Spacewatch MPS 303269
2009 11 17.16742 03 58 38.51 +26 03 51.9 19.5 V 691 – Steward Observatory, Kitt Peak-Spacewatch MPS 303269
2009 11 17.18513 03 58 37.45 +26 03 49.2 19.5 V 691 – Steward Observatory, Kitt Peak-Spacewatch MPS 303269
2009 11 24.66063 03 51 16.41 +25 41 12.1 19.2 R D29 – Purple Mountain Observatory, XuYi Station MPS 304863
2009 11 24.67189 03 51 15.73 +25 41 10.0 19.3 R D29 – Purple Mountain Observatory, XuYi Station MPS 304863
2009 11 24.68489 03 51 14.95 +25 41 07.7 19.0 R D29 – Purple Mountain Observatory, XuYi Station MPS 304863
2009 11 24.69968 03 51 14.05 +25 41 05.1 18.8 R D29 – Purple Mountain Observatory, XuYi Station MPS 304863
2009 11 25.15686 03 50 47.52 +25 39 32.3 19.8 V 691 – Steward Observatory, Kitt Peak-Spacewatch MPS 304863
2009 11 25.17466 03 50 46.45 +25 39 28.9 19.5 V 691 – Steward Observatory, Kitt Peak-Spacewatch MPS 304863
2009 11 25.19248 03 50 45.37 +25 39 25.3 19.4 V 691 – Steward Observatory, Kitt Peak-Spacewatch MPS 304863
2009 11 25.33643 03 50 36.67 +25 38 56.2 20.2 V 703 – Catalina Sky Survey MPS 304863
2009 11 25.34431 03 50 36.24 +25 38 54.3 19.8 V 703 – Catalina Sky Survey MPS 304863
2009 11 25.35223 03 50 35.77 +25 38 54.5 19.0 V 703 – Catalina Sky Survey MPS 304863
2009 11 25.36015 03 50 35.23 +25 38 51.5 19.7 V 703 – Catalina Sky Survey MPS 304863
2009 11 25.36799 03 50 34.72 +25 38 50.4 19.7 V 703 – Catalina Sky Survey MPS 304863
2009 12 10.19787 03 37 18.44 +24 44 05.5 19.5   704 – Lincoln Laboratory ETS, New Mexico MPS 307189
2009 12 10.21080 03 37 17.83 +24 44 02.5 20.1   704 – Lincoln Laboratory ETS, New Mexico MPS 307189
2009 12 10.23636 03 37 16.58 +24 43 55.5 20.6   704 – Lincoln Laboratory ETS, New Mexico MPS 307189
2009 12 10.24906 03 37 15.83 +24 43 52.5 20.1   704 – Lincoln Laboratory ETS, New Mexico MPS 307189
